TimeCST,TemperatureF,Dew PointF,Humidity,Sea Level PressureIn,VisibilityMPH,Wind Direction,Wind SpeedMPH,Gust SpeedMPH,PrecipitationIn,Events,Conditions,WindDirDegrees,DateUTC
12:15 AM,30.2,24.8,80,29.83,10.0,SSW,8.1,-,N/A,,Clear,200,2013-03-07 06:15:00
12:35 AM,28.8,23.9,82,29.83,10.0,West,6.9,-,N/A,,Clear,270,2013-03-07 06:35:00
12:55 AM,28.8,24.1,83,29.83,10.0,West,8.1,-,N/A,,Clear,260,2013-03-07 06:55:00
1:15 AM,26.6,22.6,85,29.83,10.0,Calm,Calm,-,N/A,,Clear,0,2013-03-07 07:15:00
1:35 AM,25.7,21.7,85,29.84,10.0,WNW,3.5,-,N/A,,Clear,290,2013-03-07 07:35:00
1:55 AM,28.4,23.9,83,29.84,10.0,West,5.8,-,N/A,,Clear,280,2013-03-07 07:55:00
2:15 AM,28.0,23.7,84,29.85,10.0,West,3.5,-,N/A,,Clear,260,2013-03-07 08:15:00
2:35 AM,25.3,21.7,86,29.85,10.0,SW,3.5,-,N/A,,Clear,230,2013-03-07 08:35:00
2:55 AM,24.8,21.7,88,29.84,10.0,West,4.6,-,N/A,,Clear,260,2013-03-07 08:55:00
3:15 AM,27.1,23.4,86,29.84,10.0,SW,8.1,-,N/A,,Clear,220,2013-03-07 09:15:00
3:35 AM,28.2,23.7,83,29.83,10.0,WSW,6.9,-,N/A,,Clear,250,2013-03-07 09:35:00
3:55 AM,28.8,23.7,81,29.84,10.0,WSW,8.1,-,N/A,,Clear,240,2013-03-07 09:55:00
4:15 AM,28.8,23.7,81,29.83,10.0,Calm,Calm,-,N/A,,Clear,0,2013-03-07 10:15:00
4:35 AM,28.2,23.5,83,29.83,10.0,West,5.8,-,N/A,,Clear,270,2013-03-07 10:35:00
5:15 AM,29.3,24.4,82,29.84,10.0,WSW,10.4,-,N/A,,Clear,250,2013-03-07 11:15:00
5:35 AM,31.3,25.3,79,29.84,10.0,WSW,9.2,-,N/A,,Clear,240,2013-03-07 11:35:00
5:55 AM,31.8,25.0,76,29.85,10.0,West,8.1,-,N/A,,Clear,270,2013-03-07 11:55:00
6:15 AM,32.4,24.4,73,29.86,10.0,West,3.5,-,N/A,,Clear,260,2013-03-07 12:15:00
6:55 AM,32.0,24.3,73,29.86,10.0,West,5.8,-,N/A,,Clear,270,2013-03-07 12:55:00
7:15 AM,31.6,24.1,74,29.87,10.0,Calm,Calm,-,N/A,,Clear,0,2013-03-07 13:15:00
7:35 AM,29.5,23.9,80,29.87,10.0,Calm,Calm,-,N/A,,Clear,0,2013-03-07 13:35:00
7:55 AM,32.0,24.6,74,29.88,10.0,West,3.5,-,N/A,,Clear,260,2013-03-07 13:55:00
8:15 AM,31.6,25.5,78,29.89,10.0,SW,5.8,-,N/A,,Clear,220,2013-03-07 14:15:00
8:35 AM,34.5,27.1,74,29.90,10.0,Calm,Calm,-,N/A,,Clear,0,2013-03-07 14:35:00
8:55 AM,37.4,28.6,70,29.92,10.0,Calm,Calm,-,N/A,,Clear,0,2013-03-07 14:55:00
9:15 AM,39.4,28.6,65,29.93,10.0,West,3.5,-,N/A,,Clear,280,2013-03-07 15:15:00
9:35 AM,44.1,28.9,55,29.93,10.0,WNW,5.8,-,N/A,,Clear,300,2013-03-07 15:35:00
9:55 AM,45.0,25.0,46,29.94,10.0,WNW,6.9,-,N/A,,Clear,300,2013-03-07 15:55:00
10:15 AM,46.6,26.1,45,29.94,10.0,West,5.8,-,N/A,,Clear,270,2013-03-07 16:15:00
10:35 AM,49.3,25.2,39,29.94,10.0,West,4.6,-,N/A,,Clear,280,2013-03-07 16:35:00
10:55 AM,51.6,25.0,36,29.95,10.0,Calm,Calm,-,N/A,,Clear,0,2013-03-07 16:55:00
11:15 AM,53.8,23.4,31,29.95,10.0,Calm,Calm,-,N/A,,Clear,0,2013-03-07 17:15:00
11:35 AM,56.1,22.5,27,29.95,10.0,NW,5.8,-,N/A,,Clear,320,2013-03-07 17:35:00
11:55 AM,57.6,21.9,25,29.95,10.0,North,3.5,-,N/A,,Clear,360,2013-03-07 17:55:00
12:15 PM,58.3,19.8,22,29.94,10.0,NNW,3.5,-,N/A,,Clear,340,2013-03-07 18:15:00
12:35 PM,59.7,19.4,21,29.95,10.0,ENE,4.6,-,N/A,,Clear,60,2013-03-07 18:35:00
12:55 PM,61.2,18.1,19,29.94,10.0,East,5.8,-,N/A,,Clear,80,2013-03-07 18:55:00
1:15 PM,61.7,17.8,18,29.94,10.0,East,4.6,-,N/A,,Clear,80,2013-03-07 19:15:00
1:35 PM,63.1,17.8,17,29.93,10.0,ESE,10.4,-,N/A,,Clear,110,2013-03-07 19:35:00
1:55 PM,63.5,16.9,17,29.92,10.0,East,6.9,-,N/A,,Clear,100,2013-03-07 19:55:00
2:15 PM,63.9,15.6,15,29.92,10.0,Calm,Calm,-,N/A,,Clear,0,2013-03-07 20:15:00
2:35 PM,64.0,15.3,15,29.91,10.0,SE,5.8,-,N/A,,Clear,140,2013-03-07 20:35:00
2:55 PM,65.1,16.2,15,29.90,10.0,East,10.4,-,N/A,,Clear,100,2013-03-07 20:55:00
3:15 PM,64.4,17.6,16,29.90,10.0,ESE,9.2,-,N/A,,Clear,120,2013-03-07 21:15:00
3:35 PM,63.7,18.5,18,29.90,10.0,East,9.2,16.1,N/A,,Clear,80,2013-03-07 21:35:00
3:55 PM,62.8,19.0,19,29.90,10.0,East,10.4,-,N/A,,Clear,100,2013-03-07 21:55:00
4:15 PM,63.1,17.8,17,29.90,10.0,ESE,8.1,13.8,N/A,,Clear,110,2013-03-07 22:15:00
4:35 PM,63.5,15.8,16,29.90,10.0,SE,11.5,18.4,N/A,,Clear,140,2013-03-07 22:35:00
4:55 PM,63.5,15.6,16,29.90,10.0,SE,8.1,16.1,N/A,,Clear,130,2013-03-07 22:55:00
5:15 PM,62.6,16.7,17,29.90,10.0,ESE,13.8,18.4,N/A,,Clear,110,2013-03-07 23:15:00
5:35 PM,61.7,17.2,18,29.91,10.0,SE,13.8,-,N/A,,Clear,130,2013-03-07 23:35:00
5:55 PM,60.8,19.8,21,29.91,10.0,ESE,15.0,-,N/A,,Clear,120,2013-03-07 23:55:00
7:35 PM,47.1,27.3,46,29.94,10.0,East,10.4,-,N/A,,Clear,100,2013-03-08 01:35:00
7:55 PM,44.4,27.9,52,29.95,10.0,ESE,6.9,-,N/A,,Clear,110,2013-03-08 01:55:00
8:15 PM,40.5,27.7,60,29.95,10.0,SE,9.2,-,N/A,,Clear,130,2013-03-08 02:15:00
8:35 PM,38.1,27.1,65,29.95,10.0,ESE,8.1,-,N/A,,Clear,120,2013-03-08 02:35:00
8:55 PM,38.3,28.4,68,29.95,10.0,SE,8.1,-,N/A,,Clear,130,2013-03-08 02:55:00
9:15 PM,36.0,27.9,72,29.95,10.0,SE,8.1,-,N/A,,Clear,130,2013-03-08 03:15:00
9:35 PM,34.7,27.5,75,29.95,10.0,ESE,5.8,-,N/A,,Clear,120,2013-03-08 03:35:00
9:55 PM,33.8,27.3,77,29.95,10.0,ESE,5.8,-,N/A,,Clear,120,2013-03-08 03:55:00
10:15 PM,36.0,28.2,73,29.96,10.0,SE,5.8,-,N/A,,Clear,130,2013-03-08 04:15:00
10:35 PM,33.8,27.5,78,29.96,10.0,SSE,5.8,-,N/A,,Clear,150,2013-03-08 04:35:00
10:55 PM,33.8,28.0,79,29.96,10.0,SE,8.1,-,N/A,,Clear,140,2013-03-08 04:55:00
11:15 PM,34.2,28.8,81,29.97,10.0,SSE,8.1,-,N/A,,Clear,160,2013-03-08 05:15:00
11:35 PM,32.4,28.0,84,29.98,10.0,East,4.6,-,N/A,,Clear,100,2013-03-08 05:35:00
11:55 PM,32.0,27.5,83,29.99,10.0,ESE,6.9,-,N/A,,Clear,120,2013-03-08 05:55:00